Regional Weather Roundup
Issued by NWS

Home | Current Version | Previous Version | Graphics & Text | Print | Product List | Glossary Off
Versions: 1 2 3 4 5 6 7 8 9 10 11 12 13 14 15 16 17 18 19 20 21 22 23 24 25 26 27 28 29 30 31 32 33 34 35 36 37 38 39 40 41 42 43 44 45 46 47 48 49 50

000
ASUS43 KMKX 241400
RWRWI

WISCONSIN REGIONAL WEATHER ROUNDUP
NATIONAL WEATHER SERVICE MILWAUKEE/SULLIVAN WI
900 AM CDT SAT JUN 24 2017

NOTE: "FAIR" INDICATES FEW OR NO CLOUDS BELOW 12,000 FEET WITH NO
SIGNIFICANT WEATHER AND/OR OBSTRUCTIONS TO VISIBILITY.

WIZ001-002-006>008-014>016-023>028-241500-
NORTHWEST WISCONSIN

CITY           SKY/WX    TMP DP  RH WIND       PRES   REMARKS
SUPERIOR ARPT  NOT AVBL
ASHLAND        CLOUDY    57  50  77 W13       29.89R
HAYWARD        CLOUDY    55  46  71 VRB5      29.93R
SIREN          PTSUNNY   54  45  71 NW8       29.96R
CUMBERLAND     SUNNY     54  43  66 NW13      29.96R
RICE LAKE      MOSUNNY   56  43  61 W13       29.97S
CHETEK         SUNNY     57  44  60 NW10G21   29.96R
LADYSMITH      CLOUDY    58  48  71 W15       29.95R
EAU CLAIRE     NOT AVBL
MENOMONIE      PTSUNNY   58  47  68 W10       29.99R
NEW RICHMOND   MOSUNNY   58  42  55 W14G20    29.99R
OSCEOLA        PTSUNNY   57  44  62 W9G16     30.01S
$$

WIZ003>005-009-010-017-018-241500-
NORTH CENTRAL WISCONSIN

CITY           SKY/WX    TMP DP  RH WIND       PRES   REMARKS
MANITOWISH WTR CLOUDY    53  52  99 W8        29.89R
ARBOR VITAE    CLOUDY    57  52  85 W9        29.88R
WOODRUFF       CLOUDY    57  52  85 W9        29.88R
RHINELANDER    CLOUDY    56  51  84 NW7       29.89R
EAGLE RIVER    CLOUDY    56  49  78 W8        29.87R
LAND O LAKES   CLOUDY    55  51  89 W6        29.89R
PHILLIPS       CLOUDY    53  51  91 W6        29.90R
TOMAHAWK       NOT AVBL
MEDFORD        CLOUDY    55  48  78 NW10G22   29.92R
MERRILL        CLOUDY    56  51  82 NW9       29.91R
$$

WIZ029-030-035-036-043>047-241500-
CENTRAL WISCONSIN

CITY           SKY/WX    TMP DP  RH WIND       PRES   REMARKS
WAUSAU         CLOUDY    58  51  78 NW13      29.90R
MOSINEE        NOT AVBL
MARSHFIELD     SUNNY     59  48  67 NW18      29.93R
STEVENS POINT  PTSUNNY   57  48  72 NW8G20    29.92R
WAUPACA        SUNNY     64  51  61 W14G20    29.91R
WAUTOMA        PTSUNNY   63  51  65 W18       29.93R
WISC RAPIDS    SUNNY     62  49  62 NW14      29.95R
CAMP DOUGLAS   NOT AVBL
$$

WIZ011>013-019>022-031-037>040-048>050-241500-
NORTHEAST WISCONSIN

CITY           SKY/WX    TMP DP  RH WIND       PRES   REMARKS
ANTIGO         CLOUDY    56  52  85 NW14      29.89R
SHAWANO        CLOUDY    62  54  74 W8        29.87R
OCONTO         PTSUNNY   59  56  88 W6        29.85R
STURGEON BAY     N/A     61  55  81 NW9         N/A
GREEN BAY      CLOUDY    62  57  83 W13       29.88R
MANITOWOC      NOT AVBL
APPLETON       PTSUNNY   61  48  63 W15       29.88R
CLINTONVILLE   CLOUDY    61  52  72 W9G16     29.89R
OSHKOSH        MOSUNNY   62  51  67 W15G22    29.90R
$$

WIZ032>034-041-042-053>061-241500-
SOUTHWEST WISCONSIN

CITY           SKY/WX    TMP DP  RH WIND       PRES   REMARKS
LA CROSSE      PTSUNNY   66  50  56 NW13      29.98R
SPARTA         SUNNY     62  49  63 W12       29.97R
VIROQUA        MOSUNNY   59  53  79 W8        29.99R
BOSCOBEL       SUNNY     66  51  58 NW7       29.99R
PRAIRIE DU CHI SUNNY     62  48  61 W12       30.00R
PLATTEVILLE    SUNNY     62  54  73 W8        30.00R
$$

WIZ056-057-062-063-064-067-068-241500-
SOUTH CENTRAL WISCONSIN

CITY           SKY/WX    TMP DP  RH WIND       PRES   REMARKS
REEDSBURG      SUNNY     62  50  64 NW8       29.96R
BARABOO/DELLS  MOSUNNY   61  49  64 W12G18    29.96R
LONE ROCK      SUNNY     63  50  62 W10G17    29.98R
MINERAL POINT  MOSUNNY   61  54  77 NW6       29.99R
MADISON        MOSUNNY   63  51  65 NW9G20    29.95R
MIDDLETON      SUNNY     64  52  66 NW13      29.97R
WATERTOWN      MOSUNNY   63  55  75 NW13      29.93R
MONROE         SUNNY     61  52  72 NW14      29.98R
JANESVILLE     PTSUNNY   66  54  63 NW14G20   29.96R
$$

WIZ051-052-058>065-066-070>072-241500-
SOUTHEAST WISCONSIN

CITY           SKY/WX    TMP DP  RH WIND       PRES   REMARKS
MILWAUKEE      MOSUNNY   67  54  63 W14G21    29.91R
WAUKESHA       MOSUNNY   61  52  72 W15G21    29.94R
MILWAUKEE/TIMM MOSUNNY   64  52  63 W16       29.91R
RACINE         SUNNY     66  54  65 W13G20    29.92R
KENOSHA        SUNNY     66  55  67 W12G22    29.93R
FOND DU LAC    PTSUNNY   63  50  62 NW14G21   29.92R
SHEBOYGAN      CLOUDY    64  56  75 NW13G21   29.88R
WEST BEND      MOSUNNY   63  54  72 W14G22    29.90R
JUNEAU         MOSUNNY   60  53  75 W6        29.94R
$$

LSZ147-162-241500-
LAKE SUPERIOR

STATION/POSITION TIME  TEMP    WIND        PRES    WAVE
                       AIR SEA DIR/SP/G            HT/PER
                 (UTC) (F)     (DEG/KT/KT) (MB)    (FT/S)
W MID LAKE BUOY  1250   45 39  260/  8/ 10 1010.3R   1/ 4
DEVILS ISLAND    1300   53     240/ 14/ 15 1011.3R
SAXON HARBOR     1330   57     230/  5/ 10 1011.5R
$$

LMZ867-665-643>646-241500-
LAKE MICHIGAN

STATION/POSITION TIME  TEMP    WIND        PRES    WAVE
                       AIR SEA DIR/SP/G            HT/PER
                 (UTC) (F)     (DEG/KT/KT) (MB)    (FT/S)
CHAMBERS ISLAND  1340   61     280/  2/  6 1010.2R
S GREEN BAY BUOY 1330   60     280/ 12/ 14 1010.5R
N MID LAKE BUOY  1250   58 56  290/  8/ 10 1009.8R   1/ 3
NORTHPORT PIER   1340   60     310/  8/ 12 1010.2R
KEWAUNEE LAKESHO 1330   62     310/  8/ 14 1010.5R
SHEBOYGAN LAKESH 1300   62     310/ 12/ 14 1010.9R
PORT WASHINGTON  1330   66     290/ 13/ 17 1012.9R
ATWATER BUOY     1209   60 56  280/ 12/ 14 1011.8R
MILWAUKEE LAKESH 1330   64     300/ 11/ 12   N/A
S MID LAKE BUOY  1250   61 61  320/ 14/ 16 1011.4R   3/ 4
KENOSHA   LAKESH 1300   63     300/ 16/ 22 1012.5
$$

TC  - TEMPERATURE IN CELSIUS
VSB - VISIBILITY IN STATUTE MILES
WCI - WIND CHILL INDEX
HX  - HEAT INDEX





USA.gov is the U.S. government's official web portal to all federal, state and local government web resources and services.